�N����,����,�~����,�C��,���x,�C��,����,���ϕ���,�ő�u�ԕ���,�ő厞����,���˗�,�I�_���x,�n�����x,�ő啗���N��,DTYPE
"17/06/05","00:10",0.0,13.3,71.2,1006.9,340.3,1.8,3.3,341.6,0.00,8.2,18.9,"00:01:36",1
"17/06/05","00:20",0.0,13.1,71.6,1006.7,334.3,1.7,2.8,340.5,0.00,8.1,18.8,"00:13:12",1
"17/06/05","00:30",0.0,13.2,71.8,1006.4,347.9,1.7,3.3,339.1,0.00,8.3,18.7,"00:26:00",1
"17/06/05","00:40",0.0,13.0,72.6,1006.9,338.9,1.8,2.9,337.8,0.00,8.2,18.6,"00:39:36",1
"17/06/05","00:50",0.0,12.9,73.3,1006.9,334.5,2.0,2.7,341.0,0.00,8.3,18.6,"00:44:00",1
"17/06/05","01:00",0.0,12.8,74.3,1006.9,331.7,1.7,2.9,327.9,0.00,8.4,18.4,"00:59:14",1
"17/06/05","01:10",0.0,12.7,75.7,1006.7,330.3,2.2,3.6,330.1,0.00,8.6,18.2,"01:09:22",1
"17/06/05","01:20",0.0,12.9,76.3,1006.7,330.6,2.8,4.3,341.2,0.00,8.9,18.2,"01:10:32",1
"17/06/05","01:30",0.0,12.9,77.4,1006.7,330.3,2.2,4.2,316.8,0.00,9.1,18.2,"01:28:58",1
"17/06/05","01:40",0.0,13.2,77.3,1006.7,324.5,3.0,4.4,321.5,0.00,9.4,18.2,"01:36:08",1
"17/06/05","01:50",0.0,13.3,77.2,1006.4,326.2,2.7,4.7,336.4,0.00,9.4,18.1,"01:41:20",1
"17/06/05","02:00",0.0,13.2,77.5,1006.7,324.7,3.2,4.9,329.0,0.00,9.4,18.1,"01:52:58",1
"17/06/05","02:10",0.0,13.2,78.1,1006.7,326.7,2.8,4.2,319.2,0.00,9.5,18.1,"02:07:02",1
"17/06/05","02:20",0.0,13.2,78.5,1006.7,327.2,3.0,4.7,343.5,0.00,9.6,17.7,"02:14:50",1
"17/06/05","02:30",0.0,13.2,78.8,1006.9,326.1,3.2,5.2,313.6,0.00,9.6,17.9,"02:24:24",1
"17/06/05","02:40",0.0,13.2,78.7,1006.4,324.0,3.5,5.4,333.5,0.00,9.6,17.9,"02:37:22",1
"17/06/05","02:50",0.0,12.9,79.4,1006.7,322.9,2.6,4.8,339.7,0.00,9.5,17.7,"02:42:00",1
"17/06/05","03:00",0.0,12.8,80.2,1006.7,324.1,2.5,4.8,337.2,0.00,9.5,17.7,"02:57:54",1
"17/06/05","03:10",0.0,12.7,80.9,1006.4,330.4,2.8,5.4,332.6,0.00,9.5,17.7,"03:09:28",1
"17/06/05","03:20",0.0,12.5,81.0,1006.7,330.3,2.0,3.5,339.6,0.00,9.4,17.7,"03:19:04",1
"17/06/05","03:30",0.0,12.3,80.8,1006.9,334.0,2.2,3.7,331.3,0.00,9.1,17.6,"03:24:24",1
"17/06/05","03:40",0.0,11.9,81.7,1006.4,342.3,1.8,4.1,346.4,0.00,8.9,17.6,"03:39:28",1
"17/06/05","03:50",0.0,12.0,82.9,1006.9,340.1,2.1,4.0,347.6,0.00,9.2,17.5,"03:41:44",1
"17/06/05","04:00",0.0,12.0,83.3,1007.1,336.4,2.1,3.5,328.4,0.00,9.3,17.4,"03:59:44",1
"17/06/05","04:10",0.0,12.0,84.0,1007.1,337.9,2.6,4.7,325.7,0.00,9.4,17.2,"04:09:12",1
"17/06/05","04:20",0.0,12.1,83.6,1007.4,333.5,2.8,5.7,324.6,0.00,9.5,17.4,"04:10:08",1
"17/06/05","04:30",0.0,12.1,83.6,1007.4,333.3,3.0,5.0,344.0,0.00,9.5,17.5,"04:25:38",1
"17/06/05","04:40",0.0,12.1,83.7,1007.4,329.0,3.0,5.9,318.7,0.00,9.5,17.3,"04:38:16",1
"17/06/05","04:50",0.0,12.0,84.0,1007.4,329.7,2.7,4.9,325.0,0.00,9.4,17.2,"04:47:20",1
"17/06/05","05:00",0.0,11.9,83.7,1007.4,331.2,2.8,5.8,325.9,0.00,9.3,17.1,"04:53:20",1
"17/06/05","05:10",0.0,11.6,83.1,1007.4,332.1,2.5,4.5,336.5,0.00,8.9,16.9,"05:03:52",1
"17/06/05","05:20",0.0,11.4,83.8,1007.6,331.5,2.3,3.9,318.1,0.00,8.8,17.2,"05:18:16",1
"17/06/05","05:30",0.0,11.6,83.9,1007.6,329.9,2.6,4.0,339.6,0.00,9.0,17.1,"05:29:38",1
"17/06/05","05:40",0.0,11.6,84.5,1007.8,333.1,2.3,4.7,316.8,0.00,9.1,16.9,"05:39:12",1
"17/06/05","05:50",0.0,11.8,84.1,1008.1,335.7,2.1,3.7,312.2,0.00,9.2,17.1,"05:46:48",1
"17/06/05","06:00",0.0,12.2,83.2,1007.8,337.7,2.7,4.2,328.2,0.01,9.5,17.0,"05:59:52",1
"17/06/05","06:10",0.0,13.0,80.9,1008.1,332.4,3.2,5.4,326.6,0.02,9.8,17.2,"06:05:28",1
"17/06/05","06:20",0.0,13.6,78.6,1008.6,335.5,2.1,6.4,343.8,0.04,10.0,16.9,"06:12:00",1
"17/06/05","06:30",0.0,14.1,77.5,1008.6,333.1,2.5,4.8,335.5,0.05,10.3,16.8,"06:25:04",1
"17/06/05","06:40",0.0,14.7,75.8,1008.6,334.4,2.8,4.7,346.1,0.07,10.5,17.1,"06:35:52",1
"17/06/05","06:50",0.0,14.9,73.3,1009.0,333.0,3.4,4.9,342.3,0.09,10.2,17.1,"06:48:56",1
"17/06/05","07:00",0.0,15.4,72.1,1009.3,329.2,2.6,4.5,326.4,0.12,10.4,17.2,"06:56:56",1
"17/06/05","07:10",0.0,16.1,70.0,1009.0,331.1,2.5,4.7,343.0,0.14,10.7,17.2,"07:06:08",1
"17/06/05","07:20",0.0,16.5,66.4,1009.0,338.9,2.8,6.2,341.1,0.17,10.3,17.4,"07:18:16",1
"17/06/05","07:30",0.0,17.0,64.3,1009.0,335.6,2.8,4.5,338.2,0.19,10.3,17.3,"07:27:28",1
"17/06/05","07:40",0.0,17.5,64.6,1009.3,330.1,2.5,4.5,338.2,0.22,10.8,17.6,"07:31:52",1
"17/06/05","07:50",0.0,18.2,63.3,1009.3,302.9,1.6,4.0,335.2,0.25,11.2,17.9,"07:47:44",1
"17/06/05","08:00",0.0,18.7,61.3,1009.5,312.6,1.8,4.2,334.1,0.27,11.1,17.9,"07:59:28",1
"17/06/05","08:10",0.0,19.3,60.6,1009.3,311.1,1.7,3.7,347.5,0.30,11.5,18.2,"08:05:16",1
"17/06/05","08:20",0.0,20.1,58.7,1009.0,304.2,1.3,2.4,346.2,0.32,11.8,18.4,"08:12:56",1
"17/06/05","08:30",0.0,20.6,56.4,1009.3,298.4,1.5,2.6,251.8,0.34,11.7,18.6,"08:24:24",1
"17/06/05","08:40",0.0,20.8,56.0,1008.8,280.2,1.5,4.8,349.8,0.37,11.7,18.8,"08:36:40",1
"17/06/05","08:50",0.0,21.2,53.2,1008.6,299.7,1.3,3.3,263.2,0.39,11.3,19.1,"08:40:24",1
"17/06/05","09:00",0.0,21.8,49.8,1008.8,332.1,1.3,3.7,16.2,0.41,10.9,19.5,"08:56:32",1
"17/06/05","09:10",0.0,21.8,50.7,1009.0,342.8,2.0,4.3,351.4,0.43,11.2,19.6,"09:04:24",1
"17/06/05","09:20",0.0,22.1,47.5,1008.3,357.5,1.6,3.5,337.6,0.45,10.5,20.1,"09:12:40",1
"17/06/05","09:30",0.0,22.2,47.0,1008.6,339.2,2.1,4.3,337.3,0.47,10.4,20.3,"09:29:28",1
"17/06/05","09:40",0.0,22.3,49.0,1008.3,350.9,2.5,4.5,334.5,0.49,11.1,20.7,"09:38:40",1
"17/06/05","09:50",0.0,23.0,45.8,1008.3,355.0,2.3,5.1,338.1,0.50,10.7,20.9,"09:43:52",1
"17/06/05","10:00",0.0,23.1,45.1,1008.1,358.8,2.5,5.7,15.2,0.52,10.6,21.1,"09:52:24",1
"17/06/05","10:10",0.0,23.5,41.8,1008.1,7.7,1.8,3.7,44.3,0.54,9.8,21.5,"10:04:32",1
"17/06/05","10:20",0.0,24.3,44.2,1007.8,24.5,1.3,3.9,342.4,0.55,11.4,21.7,"10:11:28",1
"17/06/05","10:30",0.0,23.6,40.6,1007.6,6.1,2.0,7.0,321.7,0.56,9.5,21.9,"10:28:48",1
"17/06/05","10:40",0.0,23.7,40.4,1007.6,352.6,3.0,6.5,357.2,0.58,9.5,22.2,"10:37:44",1
"17/06/05","10:50",0.0,23.8,41.3,1007.6,340.1,2.6,5.4,353.4,0.59,9.9,22.4,"10:45:52",1
"17/06/05","11:00",0.0,24.7,37.9,1007.6,23.0,1.7,3.9,357.7,0.60,9.4,23.0,"10:52:00",1
"17/06/05","11:10",0.0,24.7,37.8,1007.4,32.5,1.8,4.0,25.1,0.61,9.4,23.2,"11:06:00",1
"17/06/05","11:20",0.0,25.2,39.9,1007.1,34.3,1.3,5.7,353.4,0.62,10.7,23.4,"11:18:16",1
"17/06/05","11:30",0.0,24.9,39.3,1007.1,2.9,2.6,7.8,341.3,0.63,10.2,23.8,"11:28:56",1
"17/06/05","11:40",0.0,24.4,39.4,1006.9,327.0,3.1,5.8,331.2,0.63,9.8,24.0,"11:31:12",1
"17/06/05","11:50",0.0,25.3,39.8,1006.9,327.8,2.0,5.4,16.4,0.63,10.7,24.1,"11:42:24",1
"17/06/05","12:00",0.0,25.5,36.1,1007.1,7.1,2.5,4.5,334.8,0.64,9.4,24.3,"11:54:16",1
"17/06/05","12:10",0.0,25.8,39.3,1006.9,62.6,1.2,3.6,35.5,0.62,11.0,24.7,"12:07:44",1
"17/06/05","12:20",0.0,26.3,36.8,1006.4,357.5,1.1,3.3,307.9,0.67,10.4,24.7,"12:11:20",1
"17/06/05","12:30",0.0,25.2,38.8,1006.7,15.6,2.2,5.0,32.5,0.61,10.2,24.9,"12:28:56",1
"17/06/05","12:40",0.0,25.7,40.0,1006.2,341.3,2.7,5.7,320.0,0.66,11.1,25.2,"12:30:40",1
"17/06/05","12:50",0.0,25.8,38.9,1007.1,342.3,3.1,6.7,336.8,0.64,10.8,25.2,"12:42:16",1
"17/06/05","13:00",0.0,25.8,38.0,1006.4,358.3,2.5,5.0,329.5,0.63,10.5,25.4,"12:58:00",1
"17/06/05","13:10",0.0,26.1,39.9,1006.7,345.1,2.1,4.5,316.7,0.64,11.5,25.3,"13:00:08",1
"17/06/05","13:20",0.0,25.9,33.7,1006.0,335.8,3.0,6.8,312.0,0.64,8.8,25.1,"13:11:04",1
"17/06/05","13:30",0.0,25.9,39.3,1005.7,337.7,2.5,5.4,348.3,0.63,11.1,24.7,"13:29:36",1
"17/06/05","13:40",0.0,26.2,36.3,1006.4,338.1,2.7,5.7,336.3,0.61,10.1,24.8,"13:33:28",1
"17/06/05","13:50",0.0,26.2,34.6,1006.2,14.6,2.0,5.2,3.4,0.59,9.4,24.5,"13:40:56",1
"17/06/05","14:00",0.0,26.3,38.0,1005.7,348.4,2.2,4.8,320.1,0.59,10.9,24.4,"13:57:04",1
"17/06/05","14:10",0.0,26.0,34.2,1005.5,2.4,2.2,6.8,319.5,0.49,9.1,24.2,"14:08:16",1
"17/06/05","14:20",0.0,24.8,36.8,1006.2,4.8,2.0,4.0,9.3,0.25,9.1,24.5,"14:18:08",1
"17/06/05","14:30",0.0,25.4,39.6,1006.2,346.8,2.8,5.9,350.8,0.38,10.7,24.2,"14:29:20",1
"17/06/05","14:40",0.0,25.6,36.8,1006.4,359.0,2.6,6.3,350.0,0.35,9.8,24.4,"14:39:52",1
"17/06/05","14:50",0.0,24.9,37.4,1006.7,355.6,2.8,5.6,352.4,0.42,9.4,24.2,"14:40:02",1
"17/06/05","15:00",0.0,25.5,36.6,1006.9,347.1,3.0,5.8,339.0,0.38,9.6,24.1,"14:50:32",1
"17/06/05","15:10",0.0,25.3,36.6,1006.9,353.0,3.0,6.3,26.8,0.40,9.5,24.5,"15:01:04",1
"17/06/05","15:20",0.0,24.8,39.1,1006.7,357.2,2.8,5.8,331.4,0.25,10.0,24.2,"15:10:24",1
"17/06/05","15:30",0.0,25.1,38.9,1006.7,353.8,3.4,6.5,320.8,0.37,10.2,24.1,"15:23:44",1
"17/06/05","15:40",0.0,24.4,39.5,1006.7,343.1,2.3,4.3,359.5,0.15,9.8,24.1,"15:39:36",1
"17/06/05","15:50",0.0,24.0,38.9,1006.7,4.3,2.5,5.1,2.4,0.09,9.2,23.8,"15:44:16",1
"17/06/05","16:00",0.0,24.6,38.2,1007.1,340.4,2.5,4.8,348.1,0.26,9.5,23.9,"15:55:44",1
"17/06/05","16:10",0.0,24.6,38.8,1007.4,355.3,2.1,5.1,347.3,0.18,9.7,23.9,"16:08:48",1
"17/06/05","16:20",0.0,25.2,38.0,1007.4,355.0,2.3,5.0,24.9,0.31,9.9,23.6,"16:10:24",1
"17/06/05","16:30",0.0,25.4,39.0,1007.1,354.7,2.6,5.4,20.3,0.30,10.5,23.7,"16:23:44",1
"17/06/05","16:40",0.0,25.1,37.4,1007.4,336.2,2.8,7.9,345.6,0.27,9.6,23.9,"16:30:56",1
"17/06/05","16:50",0.0,24.7,37.2,1007.4,335.4,3.5,7.3,339.4,0.23,9.2,23.4,"16:44:40",1
"17/06/05","17:00",0.0,24.8,37.1,1007.4,1.2,2.1,4.4,25.8,0.22,9.2,23.6,"16:53:36",1
"17/06/05","17:10",0.0,24.7,37.5,1007.6,347.0,2.6,6.8,353.6,0.04,9.3,23.6,"17:04:24",1
"17/06/05","17:20",0.0,24.4,38.5,1007.6,348.3,2.8,5.6,348.5,0.00,9.4,23.6,"17:16:08",1
"17/06/05","17:30",0.0,24.1,38.5,1007.6,346.5,2.6,5.1,33.9,0.00,9.1,23.4,"17:24:56",1
"17/06/05","17:40",0.0,24.0,38.4,1007.8,355.6,2.2,4.5,19.2,0.00,9.0,23.3,"17:35:28",1
"17/06/05","17:50",0.0,23.7,40.7,1007.6,341.7,2.5,6.7,333.3,0.00,9.6,23.2,"17:48:08",1
"17/06/05","18:00",0.0,23.3,40.5,1008.1,359.2,2.3,5.4,351.6,0.00,9.2,23.1,"17:56:00",1
"17/06/05","18:10",0.0,23.0,41.3,1008.1,344.7,2.7,5.6,323.0,0.00,9.2,22.9,"18:03:20",1
"17/06/05","18:20",0.0,22.6,42.1,1008.3,340.4,3.0,6.6,330.1,0.00,9.1,22.9,"18:15:04",1
"17/06/05","18:30",0.0,22.1,43.7,1008.1,337.2,2.7,7.0,338.5,0.00,9.2,22.9,"18:20:48",1
"17/06/05","18:40",0.0,21.5,45.2,1008.6,336.6,2.8,6.3,333.0,0.00,9.2,22.9,"18:30:32",1
"17/06/05","18:50",0.0,20.9,47.6,1009.0,337.4,2.5,4.7,342.9,0.00,9.4,22.5,"18:43:28",1
"17/06/05","19:00",0.0,20.6,47.5,1009.0,344.9,1.8,3.9,337.2,0.00,9.1,22.5,"18:50:24",1
"17/06/05","19:10",0.0,20.2,48.2,1009.5,335.6,2.3,4.5,311.2,0.00,9.0,22.3,"19:07:52",1
"17/06/05","19:20",0.0,19.9,50.5,1009.7,339.0,2.0,3.9,332.5,0.00,9.4,22.1,"19:10:24",1
"17/06/05","19:30",0.0,19.6,52.7,1009.5,336.9,1.3,2.4,321.3,0.00,9.7,22.0,"19:21:28",1
"17/06/05","19:40",0.0,19.1,56.0,1009.3,334.0,1.2,2.1,335.9,0.00,10.2,22.0,"19:36:32",1
"17/06/05","19:50",0.0,18.5,57.2,1010.0,325.4,1.6,2.5,336.2,0.00,9.9,21.6,"19:45:52",1
"17/06/05","20:00",0.0,17.9,59.5,1010.4,304.1,0.6,1.6,343.0,0.00,9.9,21.4,"19:51:28",1
"17/06/05","20:10",0.0,17.5,63.9,1010.4,332.2,1.0,2.1,332.8,0.00,10.6,21.2,"20:08:40",1
"17/06/05","20:20",0.0,17.2,66.0,1010.4,335.1,1.6,2.7,346.7,0.00,10.8,21.1,"20:15:28",1
"17/06/05","20:30",0.0,17.2,65.8,1010.7,344.9,1.6,3.1,322.8,0.00,10.8,21.0,"20:20:08",1
"17/06/05","20:40",0.0,17.1,66.5,1011.2,340.2,1.1,2.0,331.3,0.00,10.9,20.8,"20:35:04",1
"17/06/05","20:50",0.0,16.6,68.3,1011.6,300.9,0.7,1.9,309.9,0.00,10.8,20.8,"20:42:56",1
"17/06/05","21:00",0.0,16.3,70.5,1011.4,300.3,1.1,2.0,342.6,0.00,11.0,20.7,"20:57:04",1
"17/06/05","21:10",0.0,16.4,71.0,1011.4,306.0,1.1,2.2,315.2,0.00,11.2,20.6,"21:03:20",1
"17/06/05","21:20",0.0,16.3,71.4,1011.6,310.5,0.7,1.9,320.4,0.00,11.2,20.6,"21:10:02",1
"17/06/05","21:30",0.0,16.0,72.8,1011.6,301.5,1.1,1.7,314.6,0.00,11.2,20.4,"21:22:00",1
"17/06/05","21:40",0.0,16.0,73.2,1011.6,272.1,0.8,1.4,265.6,0.00,11.2,20.2,"21:35:36",1
"17/06/05","21:50",0.0,16.1,73.1,1012.3,304.0,1.2,2.6,317.5,0.00,11.3,20.2,"21:43:20",1
"17/06/05","22:00",0.0,16.0,74.4,1012.1,356.4,1.0,1.8,344.2,0.00,11.5,20.0,"21:50:08",1
"17/06/05","22:10",0.0,15.6,75.9,1011.9,348.0,1.0,1.9,352.8,0.00,11.4,19.9,"22:01:28",1
"17/06/05","22:20",0.0,15.2,76.8,1012.3,298.6,0.7,1.4,315.6,0.00,11.2,19.9,"22:13:20",1
"17/06/05","22:30",0.0,14.9,79.0,1012.1,325.1,1.2,2.4,325.3,0.00,11.3,19.8,"22:20:08",1
"17/06/05","22:40",0.0,14.7,79.5,1012.1,294.2,1.0,1.3,320.0,0.00,11.2,19.7,"22:30:40",1
"17/06/05","22:50",0.0,14.6,79.9,1012.3,292.9,1.2,2.1,316.7,0.00,11.2,19.5,"22:49:20",1
"17/06/05","23:00",0.0,14.5,80.6,1012.6,323.0,1.6,2.6,332.6,0.00,11.2,19.6,"22:56:16",1
"17/06/05","23:10",0.0,14.5,81.3,1012.8,312.5,1.3,2.5,339.6,0.00,11.4,19.3,"23:00:02",1
"17/06/05","23:20",0.0,14.4,81.5,1012.8,301.5,1.2,2.6,342.1,0.00,11.3,19.4,"23:10:08",1
"17/06/05","23:30",0.0,14.1,82.0,1012.8,298.7,0.6,1.3,322.3,0.00,11.1,19.2,"23:25:36",1
"17/06/05","23:40",0.0,13.8,83.0,1012.6,280.8,1.0,1.1,280.6,0.00,11.0,19.0,"23:30:24",1
"17/06/05","23:50",0.0,13.5,83.6,1012.6,290.0,1.1,1.4,296.1,0.00,10.8,18.9,"23:44:00",1
"17/06/05","24:00",0.0,13.3,85.0,1012.8,308.6,1.1,1.4,318.6,0.00,10.9,18.9,"23:57:04",1
